#timestamp,LO_Frequency,Hit,StdDev 
1607906735.1,286046981.5,P
1607906755.9,286046981.8,P
1607906775.7,286046981.6,P
1607906795.6,286046980.1,Y
1607906815.4,286046999.1,P
1607906835.2,286046996.8,N
1607906855.1,286046995.8,N
1607906856.0,286046995.8,N
1607906875.8,286046996.2,N
1607906895.7,286046997.6,N
1607906915.5,286046997.8,N
1607906935.3,286046997.4,N
1607906955.2,286046997.9,N
1607906975.9,286046997.1,N
1607906995.7,286046997.4,N
1607907015.6,286046995.9,N
1607907035.4,286046997.3,N
1607907055.2,286046997.1,N
1607907075.1,286046995.7,N
1607907076.0,286046995.7,N
1607907095.8,286046996.5,N
1607907115.7,286046998.9,N
1607907135.5,286046998.8,N
1607907155.3,286046999.5,N
1607907175.2,286046996.8,N
1607907195.0,286046999.1,N
1607907195.9,286046999.1,N
1607907215.8,286046997.2,N
1607907235.6,286046997.9,N
1607907255.4,286046997.0,N
1607907275.3,286046997.4,N
1607907295.1,286046996.1,N
1607907315.8,286046995.1,N
1607907335.7,286046999.5,N
1607907355.5,286046996.0,Y
1607907375.4,286046996.7,P
1607907395.2,286046995.4,P
1607907415.0,286046997.6,P
1607907415.9,286047011.9,Y
1607907435.8,286046999.1,P
1607907455.6,286047000.6,N
1607907475.5,286046999.8,N
1607907495.3,286046998.3,N
1607907515.1,286046999.0,N
1607907535.9,286046998.4,N
1607907555.7,286047000.9,N
1607907575.6,286046998.2,N
1607907595.4,286046998.6,N
